GW6367 Weather Reports


time (UTC)temp
F
wind
direction
speed
knots
gust
knots
rain 1hr
in
rain 24hr
in
rain mn
in
humidity
%
barometer
mb
20260508105853 74 225 0.9 1.7 0.00 0.00 0.00 78 1008.0
20260508105353 74 229 0.0 2.6 0.00 0.00 0.00 79 1008.0
20260508104855 74 220 2.6 3.5 0.00 0.00 0.00 79 1008.0
20260508104354 74 245 3.5 4.3 0.00 0.00 0.00 79 1008.0
20260508103853 75 237 2.6 4.3 0.00 0.00 0.00 78 1008.0
20260508103356 75 227 4.3 4.3 0.00 0.00 0.00 77 1008.0
20260508102853 75 227 2.6 4.3 0.00 0.00 0.00 76 1008.0
20260508102355 75 243 4.3 5.2 0.00 0.00 0.00 75 1008.0
20260508101856 75 226 1.7 4.3 0.00 0.00 0.00 75 1008.0
20260508101354 75 230 5.2 5.2 0.00 0.00 0.00 75 1008.0
20260508100853 75 266 3.5 4.3 0.00 0.00 0.00 75 1007.0
20260508100355 75 235 4.3 5.2 0.00 0.00 0.00 75 1008.0
20260508095853 75 232 2.6 6.1 0.00 0.00 0.00 74 1008.0
20260508095353 76 218 5.2 7.0 0.00 0.00 0.00 74 1008.0
20260508094854 76 243 1.7 3.5 0.00 0.00 0.00 74 1008.0
20260508094354 76 226 4.3 4.3 0.00 0.00 0.00 74 1008.0
20260508093853 76 218 4.3 5.2 0.00 0.00 0.00 74 1007.0
20260508093353 76 258 5.2 6.1 0.00 0.00 0.00 73 1007.0
20260508092853 76 246 3.5 7.0 0.00 0.00 0.00 73 1007.0
20260508092354 76 264 3.5 6.1 0.00 0.00 0.00 73 1007.0
20260508091853 76 235 5.2 6.1 0.00 0.00 0.00 73 1007.0
20260508091353 76 240 5.2 7.0 0.00 0.00 0.00 73 1007.0
20260508090854 77 246 7.0 8.7 0.00 0.00 0.00 70 1008.0
20260508090354 78 304 3.5 7.0 0.00 0.00 0.00 69 1008.0
20260508085854 78 215 5.2 7.0 0.00 0.00 0.00 68 1007.0
20260508085354 77 271 1.7 5.2 0.00 0.00 0.00 70 1007.0
20260508084853 76 267 2.6 7.8 0.00 0.00 0.00 72 1007.0
20260508084353 77 250 5.2 7.8 0.00 0.00 0.00 71 1008.0
20260508083856 77 243 11.3 12.2 0.00 0.00 0.00 71 1007.0
20260508083353 76 258 6.1 7.8 0.00 0.00 0.00 72 1007.0
20260508082853 77 229 9.6 11.3 0.00 0.00 0.00 70 1007.0
20260508082354 79 235 4.3 6.1 0.00 0.00 0.00 68 1007.0
20260508081853 77 240 2.6 7.0 0.00 0.00 0.00 70 1007.0
20260508081353 78 279 4.3 8.7 0.00 0.00 0.00 69 1007.0
20260508080853 78 240 4.3 6.1 0.00 0.00 0.00 68 1007.0
20260508080353 78 280 2.6 7.8 0.00 0.00 0.00 67 1007.0
20260508075853 79 228 5.2 9.6 0.00 0.00 0.00 64 1007.0
20260508075353 79 257 1.7 4.3 0.00 0.00 0.00 64 1007.0
20260508074854 81 236 4.3 7.8 0.00 0.00 0.00 61 1007.0
20260508074353 82 225 6.1 7.0 0.00 0.00 0.00 59 1007.0
20260508073854 81 268 5.2 5.2 0.00 0.00 0.00 60 1007.0
20260508073353 81 267 5.2 9.6 0.00 0.00 0.00 61 1007.0
20260508072854 80 246 4.3 8.7 0.00 0.00 0.00 61 1007.0
20260508072354 80 262 4.3 7.0 0.00 0.00 0.00 60 1007.0
20260508071853 82 264 6.1 7.8 0.00 0.00 0.00 59 1007.0
20260508071359 81 266 4.3 7.0 0.00 0.00 0.00 59 1007.0
20260508070855 81 278 4.3 7.0 0.00 0.00 0.00 59 1007.0
20260508070353 81 229 5.2 9.6 0.00 0.00 0.00 58 1008.0
20260508065853 81 264 4.3 7.8 0.00 0.00 0.00 59 1008.0
20260508065353 81 292 2.6 9.6 0.00 0.00 0.00 59 1008.0
20260508064853 81 257 4.3 8.7 0.00 0.00 0.00 60 1008.0
20260508064353 79 219 3.5 9.6 0.00 0.00 0.00 62 1008.0
20260508063853 79 238 4.3 7.8 0.00 0.00 0.00 63 1008.0
20260508063353 79 234 3.5 5.2 0.00 0.00 0.00 62 1008.0
20260508062853 79 275 0.9 8.7 0.00 0.00 0.00 62 1008.0
20260508062353 80 229 5.2 7.8 0.00 0.00 0.00 60 1008.0
20260508061853 80 238 3.5 8.7 0.00 0.00 0.00 59 1008.0
20260508061353 82 268 2.6 7.8 0.00 0.00 0.00 57 1008.0
20260508060853 80 284 3.5 9.6 0.00 0.00 0.00 60 1008.0
20260508060354 77 268 6.1 6.1 0.00 0.00 0.00 67 1009.0
20260508055854 78 216 4.3 7.0 0.00 0.00 0.00 67 1009.0
20260508055353 78 277 2.6 10.4 0.00 0.00 0.00 66 1009.0
20260508054853 80 277 3.5 8.7 0.00 0.00 0.00 60 1009.0
20260508054354 79 265 4.3 7.8 0.00 0.00 0.00 61 1009.0
20260508053854 79 273 4.3 7.0 0.00 0.00 0.00 61 1009.0
20260508053353 78 232 4.3 5.2 0.00 0.00 0.00 62 1009.0
20260508052853 78 243 3.5 6.1 0.00 0.00 0.00 62 1009.0
20260508052353 80 304 5.2 7.0 0.00 0.00 0.00 60 1009.0
20260508051853 81 227 5.2 8.7 0.00 0.00 0.00 58 1009.0
20260508051354 81 230 7.0 7.8 0.00 0.00 0.00 57 1009.0
20260508050854 80 265 6.1 9.6 0.00 0.00 0.00 58 1009.0
20260508050356 80 279 4.3 7.8 0.00 0.00 0.00 57 1010.0
20260508045853 82 258 5.2 6.1 0.00 0.00 0.00 55 1010.0
20260508045353 84 287 4.3 8.7 0.00 0.00 0.00 52 1010.0
20260508044853 82 256 7.0 7.8 0.00 0.00 0.00 55 1010.0
20260508044353 80 284 6.1 10.4 0.00 0.00 0.00 58 1010.0
20260508043853 81 239 6.1 7.0 0.00 0.00 0.00 57 1010.0
20260508043353 80 293 4.3 6.1 0.00 0.00 0.00 57 1010.0
20260508042854 81 275 3.5 8.7 0.00 0.00 0.00 58 1010.0
20260508042353 81 251 3.5 7.8 0.00 0.00 0.00 58 1010.0
20260508041853 81 248 6.1 6.1 0.00 0.00 0.00 58 1010.0
20260508041354 80 277 4.3 6.1 0.00 0.00 0.00 59 1010.0
20260508040857 78 240 4.3 6.1 0.00 0.00 0.00 63 1010.0
20260508040353 77 255 3.5 7.8 0.00 0.00 0.00 65 1011.0
20260508035853 78 254 3.5 6.1 0.00 0.00 0.00 66 1011.0
20260508035353 78 273 4.3 7.8 0.00 0.00 0.00 66 1010.0
20260508034854 78 243 7.0 8.7 0.00 0.00 0.00 66 1011.0
20260508034357 79 281 4.3 7.8 0.00 0.00 0.00 64 1011.0
20260508033853 79 228 6.1 7.0 0.00 0.00 0.00 64 1011.0
20260508033354 78 236 5.2 7.8 0.00 0.00 0.00 65 1011.0
20260508032854 79 249 4.3 13.0 0.00 0.00 0.00 64 1011.0
20260508032354 77 262 3.5 8.7 0.00 0.00 0.00 67 1011.0
20260508031853 78 242 4.3 7.8 0.00 0.00 0.00 65 1011.0
20260508031354 79 246 4.3 9.6 0.00 0.00 0.00 62 1011.0
20260508030853 80 243 6.1 7.8 0.00 0.00 0.00 59 1011.0
20260508030353 81 251 5.2 10.4 0.00 0.00 0.00 57 1012.0
20260508025854 81 239 5.2 9.6 0.00 0.00 0.00 56 1012.0
20260508025353 81 226 4.3 7.0 0.00 0.00 0.00 56 1012.0
20260508024855 82 266 4.3 7.8 0.00 0.00 0.00 54 1012.0
20260508024353 80 315 0.0 6.1 0.00 0.00 0.00 47 1012.0
20260508023853 82 305 5.2 8.7 0.00 0.00 0.00 50 1012.0
20260508023353 82 299 4.3 6.1 0.00 0.00 0.00 50 1012.0
20260508022853 82 145 0.9 4.3 0.00 0.00 0.00 40 1012.0
20260508022355 81 236 0.0 4.3 0.00 0.00 0.00 42 1012.0
20260508021854 81 246 2.6 3.5 0.00 0.00 0.00 42 1012.0
20260508021354 80 219 3.5 6.1 0.00 0.00 0.00 43 1012.0
20260508020854 83 306 6.1 7.8 0.00 0.00 0.00 41 1012.0
20260508020354 81 269 1.7 3.5 0.00 0.00 0.00 41 1013.0
20260508015853 80 266 1.7 3.5 0.00 0.00 0.00 39 1013.0
20260508015353 79 22 1.7 2.6 0.00 0.00 0.00 49 1012.0
20260508014853 79 234 4.3 5.2 0.00 0.00 0.00 52 1013.0
20260508014354 79 288 3.5 6.1 0.00 0.00 0.00 51 1013.0
20260508013853 78 221 4.3 5.2 0.00 0.00 0.00 55 1012.0
20260508013353 78 317 0.9 5.2 0.00 0.00 0.00 60 1013.0
20260508012853 79 249 1.7 4.3 0.00 0.00 0.00 57 1013.0
20260508012353 79 237 3.5 4.3 0.00 0.00 0.00 59 1013.0
20260508011853 78 200 2.6 3.5 0.00 0.00 0.00 60 1012.0
20260508011353 77 215 2.6 4.3 0.00 0.00 0.00 62 1013.0
20260508010854 77 275 2.6 3.5 0.00 0.00 0.00 64 1013.0
20260508010353 77 247 0.0 5.2 0.00 0.00 0.00 64 1013.0
20260508005854 75 239 2.6 3.5 0.00 0.00 0.00 67 1013.0
20260508005353 75 278 4.3 4.3 0.00 0.00 0.00 69 1013.0
20260508004853 74 228 1.7 4.3 0.00 0.00 0.00 70 1013.0
20260508004353 73 13 0.9 2.6 0.00 0.00 0.00 69 1013.0
20260508003854 74 204 0.9 3.5 0.00 0.00 0.00 69 1013.0
20260508003353 74 200 2.6 4.3 0.00 0.00 0.00 69 1013.0
20260508002854 75 275 1.7 2.6 0.00 0.00 0.00 69 1013.0
20260508002353 75 133 0.9 2.6 0.00 0.00 0.00 68 1013.0
20260508001853 75 215 1.7 5.2 0.00 0.00 0.00 67 1013.0
20260508001353 74 85 1.7 3.5 0.00 0.00 0.00 69 1013.0
20260508000853 74 212 1.7 2.6 0.00 0.00 0.00 69 1013.0
20260508000357 75 50 0.9 2.6 0.00 0.00 0.00 68 1013.0
20260507235854 73 214 0.0 3.5 0.00 0.00 0.00 70 1013.0
20260507235353 72 349 1.7 3.5 0.00 0.00 0.00 73 1012.0
20260507234853 73 309 0.0 2.6 0.00 0.00 0.00 70 1012.0
20260507234354 73 97 1.7 2.6 0.00 0.00 0.00 72 1012.0
20260507233853 72 236 1.7 2.6 0.00 0.00 0.00 74 1012.0
20260507233353 72 0 1.7 3.5 0.00 0.00 0.00 74 1012.0
20260507232854 72 242 0.0 2.6 0.00 0.00 0.00 73 1012.0
20260507232353 72 329 2.6 3.5 0.00 0.00 0.00 75 1012.0
20260507231853 72 1 0.9 2.6 0.00 0.00 0.00 74 1012.0
20260507231353 72 289 2.6 2.6 0.00 0.00 0.00 75 1012.0
20260507230854 70 113 0.0 1.7 0.00 0.00 0.00 77 1012.0
20260507230353 70 121 0.0 2.6 0.00 0.00 0.00 77 1012.0
20260507225853 71 341 0.0 2.6 0.00 0.00 0.00 77 1012.0
20260507225354 69 191 1.7 1.7 0.00 0.00 0.00 79 1012.0
20260507224855 69 242 0.0 1.7 0.00 0.00 0.00 80 1012.0
20260507224353 69 205 0.9 1.7 0.00 0.00 0.00 81 1012.0
20260507223853 68 213 0.0 1.7 0.00 0.00 0.00 81 1012.0
20260507223353 67 241 0.0 1.7 0.00 0.00 0.00 84 1012.0
20260507222854 65 162 0.9 1.7 0.00 0.00 0.00 87 1012.0
20260507222354 64 210 0.0 1.7 0.00 0.00 0.00 91 1012.0
20260507221853 64 235 0.9 1.7 0.00 0.00 0.00 91 1011.0
20260507221353 64 224 0.9 1.7 0.00 0.00 0.00 91 1011.0
20260507220853 64 212 0.9 1.7 0.00 0.00 0.00 91 1011.0
20260507220353 64 192 0.9 2.6 0.00 0.00 0.00 91 1011.0
20260507215854 64 232 0.0 1.7 0.00 0.00 0.00 90 1011.0
20260507215354 64 207 0.0 1.7 0.00 0.00 0.00 90 1011.0
20260507214853 63 187 0.9 1.7 0.00 0.00 0.00 93 1011.0
20260507214353 63 165 0.0 1.7 0.00 0.00 0.00 92 1011.0
20260507213854 63 186 0.9 1.7 0.00 0.00 0.00 91 1011.0
20260507213353 63 221 0.0 1.7 0.00 0.00 0.00 90 1011.0
20260507212854 63 187 1.7 2.6 0.00 0.00 0.00 91 1011.0
20260507212353 63 200 1.7 2.6 0.00 0.00 0.00 91 1010.0
20260507211853 63 173 0.0 1.7 0.00 0.00 0.00 90 1010.0
20260507211353 64 210 0.9 2.6 0.00 0.00 0.00 89 1010.0
20260507210853 64 230 1.7 2.6 0.00 0.00 0.00 88 1011.0
20260507210353 64 226 0.9 1.7 0.00 0.00 0.00 89 1010.0
20260507205853 64 205 1.7 3.5 0.00 0.00 0.00 88 1010.0
20260507205354 64 201 2.6 4.3 0.00 0.00 0.00 89 1010.0
20260507204854 64 247 0.9 2.6 0.00 0.00 0.00 90 1010.0
20260507204353 64 205 0.9 2.6 0.00 0.00 0.00 88 1010.0
20260507203854 64 174 0.9 3.5 0.00 0.00 0.00 89 1010.0
20260507203355 64 285 0.0 2.6 0.00 0.00 0.00 90 1010.0
20260507202854 64 208 1.7 2.6 0.00 0.00 0.00 90 1010.0
20260507202353 64 235 1.7 2.6 0.00 0.00 0.00 91 1010.0
20260507201854 64 231 0.9 1.7 0.00 0.00 0.00 90 1010.0
20260507201353 65 229 1.7 1.7 0.00 0.00 0.00 89 1010.0
20260507200853 65 204 0.0 1.7 0.00 0.00 0.00 88 1010.0
20260507200353 66 203 1.7 2.6 0.00 0.00 0.00 87 1009.0
20260507195854 66 244 0.9 2.6 0.00 0.00 0.00 86 1009.0
20260507195353 67 230 0.9 1.7 0.00 0.00 0.00 84 1009.0
20260507194853 66 202 0.0 2.6 0.00 0.00 0.00 87 1009.0
20260507194353 64 92 0.0 1.7 0.00 0.00 0.00 93 1009.0
20260507193853 64 158 1.7 2.6 0.00 0.00 0.00 93 1009.0
20260507193353 64 219 0.9 1.7 0.00 0.00 0.00 93 1009.0
20260507192853 64 190 0.0 2.6 0.00 0.00 0.00 92 1009.0
20260507192353 65 223 0.9 1.7 0.00 0.00 0.00 92 1009.0
20260507191854 65 189 1.7 2.6 0.00 0.00 0.00 91 1009.0
20260507191353 65 272 0.9 1.7 0.00 0.00 0.00 91 1009.0
20260507190853 65 244 1.7 2.6 0.00 0.00 0.00 91 1009.0
20260507190356 65 231 2.6 2.6 0.00 0.00 0.00 92 1009.0
20260507185854 65 233 0.9 2.6 0.00 0.00 0.00 92 1009.0
20260507185354 65 237 0.9 1.7 0.00 0.00 0.00 93 1009.0
20260507184853 65 200 1.7 2.6 0.00 0.00 0.00 92 1009.0
20260507184354 66 209 0.0 1.7 0.00 0.00 0.00 90 1009.0
20260507183854 66 239 1.7 2.6 0.00 0.00 0.00 88 1009.0
20260507183354 67 161 0.0 1.7 0.00 0.00 0.00 89 1009.0
20260507182854 67 227 2.6 3.5 0.00 0.00 0.00 88 1009.0
20260507182353 67 230 1.7 3.5 0.00 0.00 0.00 88 1009.0
20260507181854 67 192 1.7 2.6 0.00 0.00 0.00 88 1009.0
20260507181356 67 292 0.9 2.6 0.00 0.00 0.00 89 1009.0
20260507180854 67 224 1.7 4.3 0.00 0.00 0.00 89 1009.0
20260507180359 67 19 0.9 2.6 0.00 0.00 0.00 90 1009.0
20260507175853 66 102 1.7 3.5 0.00 0.00 0.00 91 1008.0
20260507175356 66 232 0.9 3.5 0.00 0.00 0.00 91 1009.0
20260507174854 66 230 1.7 3.5 0.00 0.00 0.00 91 1009.0
20260507174354 66 237 4.3 4.3 0.00 0.00 0.00 91 1009.0
20260507173853 67 244 0.0 4.3 0.00 0.00 0.00 90 1009.0
20260507173353 67 211 1.7 3.5 0.00 0.00 0.00 90 1009.0
20260507172853 67 85 1.7 3.5 0.00 0.00 0.00 89 1009.0
20260507172354 67 71 0.9 3.5 0.00 0.00 0.00 89 1009.0
20260507171854 67 109 0.9 4.3 0.00 0.00 0.00 89 1009.0
20260507171354 67 92 1.7 3.5 0.00 0.00 0.00 89 1009.0
20260507170853 67 303 1.7 3.5 0.00 0.00 0.00 90 1009.0
20260507170354 66 249 2.6 2.6 0.00 0.00 0.00 91 1009.0
20260507165853 66 241 2.6 3.5 0.00 0.00 0.00 91 1009.0
20260507165353 66 197 0.9 3.5 0.00 0.00 0.00 91 1009.0
20260507164854 66 243 1.7 2.6 0.00 0.00 0.00 91 1009.0
20260507164354 66 11 1.7 2.6 0.00 0.00 0.00 90 1009.0
20260507163854 66 283 0.9 3.5 0.00 0.00 0.00 91 1009.0
20260507163354 66 218 1.7 2.6 0.00 0.00 0.00 91 1009.0
20260507162853 66 239 2.6 2.6 0.00 0.00 0.00 90 1009.0
20260507162353 66 221 2.6 4.3 0.00 0.00 0.00 90 1009.0
20260507161854 67 236 1.7 4.3 0.00 0.00 0.00 90 1009.0
20260507161353 66 241 1.7 2.6 0.00 0.00 0.00 92 1009.0
20260507160853 66 225 1.7 1.7 0.00 0.00 0.00 91 1009.0
20260507160354 66 235 1.7 2.6 0.00 0.00 0.00 91 1009.0
20260507155854 66 236 1.7 2.6 0.00 0.00 0.00 91 1009.0
20260507155354 66 208 1.7 2.6 0.00 0.00 0.00 90 1009.0
20260507154853 67 213 1.7 2.6 0.00 0.00 0.00 90 1009.0
20260507154353 67 228 1.7 2.6 0.00 0.00 0.00 90 1009.0
20260507153853 67 249 1.7 2.6 0.00 0.00 0.00 89 1009.0
20260507153353 67 218 2.6 3.5 0.00 0.00 0.00 89 1009.0
20260507152856 67 241 2.6 3.5 0.00 0.00 0.00 89 1009.0
20260507152354 67 227 2.6 3.5 0.00 0.00 0.00 89 1009.0
20260507151854 67 232 1.7 2.6 0.00 0.00 0.00 88 1009.0
20260507151353 68 221 2.6 3.5 0.00 0.00 0.00 88 1009.0
20260507150858 68 241 2.6 2.6 0.00 0.00 0.00 88 1009.0
20260507150354 68 224 2.6 3.5 0.00 0.00 0.00 87 1009.0
20260507145854 68 240 1.7 2.6 0.00 0.00 0.00 87 1009.0
20260507145353 68 269 2.6 2.6 0.00 0.00 0.00 88 1009.0
20260507144853 68 235 1.7 2.6 0.00 0.00 0.00 88 1009.0
20260507144353 68 259 2.6 4.3 0.00 0.00 0.00 87 1009.0
20260507143853 68 227 1.7 2.6 0.00 0.00 0.00 87 1010.0
20260507143355 68 258 2.6 3.5 0.00 0.00 0.00 87 1009.0
20260507142854 68 192 1.7 3.5 0.00 0.00 0.00 87 1009.0
20260507142355 68 224 2.6 3.5 0.00 0.00 0.00 87 1009.0
20260507141854 68 232 3.5 3.5 0.00 0.00 0.00 87 1009.0
20260507141355 68 234 2.6 2.6 0.00 0.00 0.00 87 1009.0
20260507140854 68 215 2.6 2.6 0.00 0.00 0.00 87 1010.0
20260507140353 68 233 1.7 2.6 0.00 0.00 0.00 88 1009.0
20260507135854 68 227 2.6 3.5 0.00 0.00 0.00 88 1009.0
20260507135354 68 223 2.6 3.5 0.00 0.00 0.00 88 1009.0
20260507134853 68 234 1.7 2.6 0.00 0.00 0.00 88 1009.0
20260507134354 68 223 2.6 2.6 0.00 0.00 0.00 88 1009.0
20260507133853 68 235 2.6 2.6 0.00 0.00 0.00 87 1009.0
20260507133353 69 245 2.6 2.6 0.00 0.00 0.00 86 1009.0
20260507132854 69 247 2.6 4.3 0.00 0.00 0.00 86 1009.0
20260507132354 69 244 2.6 4.3 0.00 0.00 0.00 86 1009.0
20260507131853 69 236 2.6 3.5 0.00 0.00 0.00 87 1009.0
20260507131353 69 238 2.6 2.6 0.00 0.00 0.00 85 1009.0
20260507130857 69 219 2.6 3.5 0.00 0.00 0.00 85 1009.0
20260507130353 69 224 2.6 3.5 0.00 0.00 0.00 85 1008.0
20260507125854 69 237 3.5 3.5 0.00 0.00 0.00 85 1008.0
20260507125354 69 231 3.5 3.5 0.00 0.00 0.00 86 1008.0
20260507124854 69 241 4.3 4.3 0.00 0.00 0.00 85 1008.0
20260507124356 69 212 1.7 3.5 0.00 0.00 0.00 85 1008.0
20260507123853 69 234 3.5 3.5 0.00 0.00 0.00 85 1008.0
20260507123354 70 260 3.5 4.3 0.00 0.00 0.00 85 1008.0
20260507122853 70 232 2.6 2.6 0.00 0.00 0.00 84 1008.0
20260507122353 70 237 2.6 3.5 0.00 0.00 0.00 84 1008.0
20260507121854 70 227 3.5 3.5 0.00 0.00 0.00 84 1008.0
20260507121354 71 238 2.6 3.5 0.00 0.00 0.00 84 1008.0
20260507120859 71 256 2.6 4.3 0.00 0.00 0.00 84 1008.0
20260507120354 71 232 2.6 2.6 0.00 0.00 0.00 83 1008.0
20260507115853 71 241 1.7 2.6 0.00 0.00 0.00 83 1008.0
20260507115353 71 252 2.6 3.5 0.00 0.00 0.00 83 1008.0
20260507114853 71 244 2.6 2.6 0.00 0.00 0.00 81 1008.0
20260507114353 71 249 1.7 2.6 0.00 0.00 0.00 84 1008.0
20260507113854 71 275 2.6 4.3 0.00 0.00 0.00 84 1008.0
20260507113354 71 229 2.6 4.3 0.00 0.00 0.00 85 1008.0
20260507112854 71 224 1.7 2.6 0.00 0.00 0.00 85 1008.0
20260507112353 71 239 2.6 2.6 0.00 0.00 0.00 86 1007.0
20260507111853 71 239 2.6 2.6 0.00 0.00 0.00 86 1007.0
20260507111353 71 236 3.5 4.3 0.00 0.00 0.00 86 1007.0
20260507110854 71 245 2.6 3.5 0.00 0.00 0.00 86 1007.0
20260507110355 71 273 1.7 2.6 0.00 0.00 0.00 86 1007.0